Starlink 11141

operational
NORAD ID: 60066 Int'l Des: 2024-113 Owner: SPXS Country: US Constellation: starlink
LEOCIRCULAR

关于 Starlink 11141

正在加载描述...

实时位置

正在加载3D地球...

即将过境

高度历史

Altitude vs Time

uPlot chart will show altitude changes over time

两行轨道根数

1 60066U 24113H 25308.76301457 -.00000724 00000-0 -11151-5 0 9999
2 60066 53.1600 86.7914 0001230 80.2342 279.8814 15.69705174 79948
Epoch: Nov 4, 2025 • Age: 9 hours

当前状态

高度 376.4 km
速度 7.68 km/s
星下点 -46.73°S, 60.03°W
发射日期 Jun 19, 2024
运行时间 1.3 years
类型 internet

技术详情

分类 Payload
质量 960.00 kg
干质量 910.00 kg
总质量 960.00 kg
长度 0.30 m
直径 4.10 m
跨度 29.00 m
形状 Box + pan
制造商 SPXS
平台类型 Starlink V2MD
阶段状态 In Orbit
所有者/国家 SPXS/US

大型星座

Loading constellations...